Sugar Grove, IL

8:47 AM CST on December 04, 2016 (GMT -0600)
Aurora Municipal

Weather History for KARR - April, 2014

Change the Weather History Date:

Monday, April 14, 2014

  Actual Average Record
Temperature  
Mean Temperature 46 °F 48 °F  
Max Temperature 64 °F 60 °F 82 °F (2010)
Min Temperature 28 °F 37 °F 26 °F (2008)
Degree Days  
Heating Degree Days 19 17  
Month to date heating degree days 253 270  
Since 1 July heating degree days 6910 6278  
Cooling Degree Days 0 0  
Month to date cooling degree days 0 0  
Year to date cooling degree days 0 0  
Moisture  
Dew Point 36 °F    
Average Humidity 82    
Maximum Humidity 92    
Minimum Humidity 72    
Precipitation  
Precipitation 0.05 in 0.10 in 0.19 in (2012)
Month to date precipitation 1.38 1.45  
Year to date precipitation 3.95 6.77  
Sea Level Pressure  
Sea Level Pressure 29.75 in    
Wind  
Wind Speed 17 mph (NNW)    
Max Wind Speed 31 mph    
Max Gust Speed 39 mph    
Visibility 6 miles    
Events Fog , Rain , Snow    
T = Trace of Precipitation, MM = Missing Value Source: NWS Daily Summary

Daily Weather History Graph

Daily Weather History Graph

Search for Another Location

Airport or City:

Trip Planner

Search our weather history database for the weather conditions in past years. The results will help you decide how hot, cold, wet, or windy it might be!

Date:

Astronomy

Apr. 14, 2014 Rise Set
Actual Time 6:15 AM CDT 7:33 PM CDT
Civil Twilight 5:46 AM CDT 8:02 PM CDT
Nautical Twilight 5:12 AM CDT 8:37 PM CDT
Astronomical Twilight 4:35 AM CDT 9:13 PM CDT
Moon 7:12 PM CDT (4/14) 5:48 AM CDT (4/14)
Length of Visible Light 14h 16m
Length of Day
13h 18m
Full, 100% of the Moon is Illuminated
Apr 14
Full
Apr 15
Full
Apr 22
Last Quarter
Apr 29
New
May 6
First Quarter

Hourly Weather History & Observations

Time (CDT) Temp. Windchill Dew Point Humidity Pressure Visibility Wind Dir Wind Speed Gust Speed Precip Events Conditions
12:52 AM 61.0 °F - 55.9 °F 83% 29.37 in 10.0 mi SSE 20.7 mph 27.6 mph 0.01 in Rain Light Rain
1:36 AM 61.0 °F - 55.9 °F 83% 29.36 in 10.0 mi South 16.1 mph - 0.00 in   Overcast
1:52 AM 61.0 °F - 55.9 °F 83% 29.36 in 10.0 mi South 20.7 mph 31.1 mph 0.00 in   Overcast
2:31 AM 61.0 °F - 57.0 °F 87% 29.36 in 5.0 mi SSW 21.9 mph 34.5 mph 0.01 in Rain Light Rain
2:47 AM 60.8 °F - 55.4 °F 82% 29.36 in 10.0 mi SSW 21.9 mph 28.8 mph 0.01 in   Overcast
2:52 AM 60.1 °F - 55.9 °F 86% 29.36 in 10.0 mi SW 23.0 mph 28.8 mph 0.01 in   Overcast
3:27 AM 57.9 °F - 53.1 °F 84% 29.37 in 6.0 mi SW 23.0 mph 33.4 mph 0.00 in Rain Light Rain
4:20 AM 53.1 °F - 50.0 °F 89% 29.40 in 2.0 mi WSW 19.6 mph 31.1 mph 0.01 in Rain Light Rain
4:27 AM 48.0 °F - 46.0 °F 93% 29.42 in 1.8 mi NW 27.6 mph 31.1 mph 0.02 in Rain Light Rain
4:52 AM 43.0 °F 32.9 °F 39.9 °F 89% 29.48 in 7.0 mi NNW 27.6 mph 35.7 mph 0.02 in Rain Light Rain
5:10 AM 43.0 °F 33.3 °F 39.0 °F 86% 29.49 in 6.0 mi NNW 25.3 mph 35.7 mph 0.00 in   Overcast
5:52 AM 41.0 °F 30.0 °F 37.0 °F 86% 29.54 in 10.0 mi NNW 28.8 mph 34.5 mph 0.00 in   Overcast
6:39 AM 39.0 °F 29.3 °F 35.1 °F 86% 29.60 in 10.0 mi NNW 19.6 mph 35.7 mph 0.00 in   Overcast
7:52 AM 39.0 °F 30.3 °F 33.1 °F 79% 29.70 in 10.0 mi North 16.1 mph - 0.00 in Rain Light Rain
8:40 AM 39.9 °F 31.4 °F 33.1 °F 77% 29.72 in 10.0 mi North 16.1 mph - 0.00 in   Overcast
8:52 AM 39.9 °F 32.1 °F 33.1 °F 77% 29.74 in 10.0 mi North 13.8 mph - 0.00 in   Overcast
9:52 AM 39.9 °F 31.8 °F 34.0 °F 79% 29.78 in 7.0 mi North 15.0 mph 23.0 mph N/A   Overcast
10:52 AM 39.0 °F 29.6 °F 34.0 °F 82% 29.83 in 7.0 mi NNW 18.4 mph - 0.00 in Rain Light Rain
11:52 AM 39.9 °F 30.5 °F 34.0 °F 79% 29.84 in 10.0 mi NNW 19.6 mph - 0.01 in Rain Light Rain
1:30 PM 39.0 °F 29.3 °F 33.1 °F 79% 29.84 in 10.0 mi NNW 19.6 mph - 0.00 in   Overcast
1:37 PM 39.0 °F 28.8 °F 33.1 °F 79% 29.85 in 10.0 mi NNW 21.9 mph - 0.00 in   Overcast
1:52 PM 39.0 °F 28.5 °F 32.0 °F 76% 29.85 in 10.0 mi NNW 23.0 mph - 0.00 in   Overcast
2:52 PM 37.0 °F 26.7 °F 30.9 °F 79% 29.88 in 5.0 mi NNW 19.6 mph 26.5 mph 0.00 in Snow Light Snow
3:04 PM 36.0 °F 24.7 °F 30.9 °F 82% 29.88 in 2.5 mi NNW 21.9 mph - 0.00 in Snow Light Snow
3:11 PM 35.1 °F 24.1 °F 30.0 °F 82% 29.87 in 1.5 mi NNW 19.6 mph 29.9 mph 0.00 in Snow Light Snow
3:55 PM 34.0 °F 23.4 °F 30.9 °F 89% 29.89 in 1.2 mi NNW 17.3 mph 25.3 mph 0.00 in Snow Light Snow
4:22 PM 33.1 °F 21.9 °F 28.9 °F 85% 29.89 in 2.0 mi NNW 18.4 mph 27.6 mph 0.00 in Snow Light Snow
4:37 PM 34.0 °F 23.0 °F 30.0 °F 85% 29.89 in 2.0 mi NNW 18.4 mph 27.6 mph 0.00 in Snow Light Snow
4:52 PM 34.0 °F 23.0 °F 30.0 °F 85% 29.91 in 2.0 mi NNW 18.4 mph - 0.00 in Snow Light Snow
4:59 PM 34.0 °F 23.0 °F 30.0 °F 85% 29.89 in 1.5 mi NNW 18.4 mph - 0.00 in Snow Light Snow
5:12 PM 33.1 °F 22.2 °F 30.0 °F 89% 29.90 in 0.8 mi NNW 17.3 mph - 0.00 in Snow Light Snow
5:40 PM 32.0 °F 20.1 °F 28.9 °F 88% 29.91 in 0.5 mi NNW 19.6 mph - 0.01 in Fog , Snow Snow
5:52 PM 32.0 °F 22.1 °F 28.9 °F 88% 29.95 in 0.5 mi NNW 13.8 mph - 0.01 in Fog , Snow Snow
6:07 PM 32.0 °F 22.1 °F 28.9 °F 88% 29.94 in 1.0 mi NNW 13.8 mph - 0.00 in Snow Light Snow
6:26 PM 32.0 °F 20.5 °F 28.9 °F 88% 29.94 in 0.8 mi North 18.4 mph - 0.00 in Snow Light Snow
6:52 PM 32.0 °F 20.5 °F 28.0 °F 85% 29.97 in 0.8 mi NNW 18.4 mph 26.5 mph 0.00 in Snow Light Snow
7:31 PM 30.9 °F 19.4 °F 28.0 °F 89% 29.95 in 1.0 mi NNW 17.3 mph 25.3 mph 0.00 in Snow Light Snow
7:52 PM 30.9 °F 19.4 °F 28.0 °F 89% 29.99 in 2.5 mi NNW 17.3 mph - 0.00 in Snow Light Snow
8:52 PM 30.9 °F 22.2 °F 28.0 °F 89% 30.00 in 5.0 mi NNW 10.4 mph - 0.00 in Snow Light Snow
9:52 PM 30.9 °F 21.2 °F 26.1 °F 82% 30.00 in 9.0 mi NNW 12.7 mph - 0.00 in   Mostly Cloudy
10:52 PM 30.9 °F 21.2 °F 26.1 °F 82% 30.01 in 10.0 mi NW 12.7 mph - N/A   Overcast
11:52 PM 30.0 °F 20.0 °F 23.0 °F 75% 30.02 in 10.0 mi NNW 12.7 mph - N/A   Mostly Cloudy